TimeMDT,TemperatureF,Dew PointF,Humidity,Sea Level PressureIn,VisibilityMPH,Wind Direction,Wind SpeedMPH,Gust SpeedMPH,PrecipitationIn,Events,Conditions,WindDirDegrees,DateUTC
12:53 AM,63.0,57.0,81,29.79,10.0,NW,9.2,-,N/A,,Mostly Cloudy,320,2013-09-14 06:53:00
1:53 AM,62.1,55.9,80,29.79,10.0,North,9.2,-,N/A,,Mostly Cloudy,350,2013-09-14 07:53:00
2:53 AM,62.1,57.0,84,29.79,10.0,ESE,4.6,-,0.00,,Overcast,120,2013-09-14 08:53:00
3:53 AM,62.1,57.9,86,29.79,10.0,ESE,8.1,-,N/A,,Clear,110,2013-09-14 09:53:00
4:53 AM,61.0,59.0,93,29.81,10.0,SSE,4.6,-,N/A,,Overcast,160,2013-09-14 10:53:00
5:53 AM,62.1,57.9,86,29.80,10.0,ESE,10.4,-,0.00,Rain,Light Rain,120,2013-09-14 11:53:00
6:53 AM,61.0,55.0,81,29.81,10.0,SE,9.2,-,0.00,,Scattered Clouds,130,2013-09-14 12:53:00
7:53 AM,62.1,55.9,80,29.84,10.0,NE,3.5,-,N/A,,Mostly Cloudy,50,2013-09-14 13:53:00
8:53 AM,64.0,55.9,75,29.84,10.0,ESE,4.6,-,N/A,,Overcast,120,2013-09-14 14:53:00
9:53 AM,64.0,57.0,78,29.86,10.0,East,12.7,-,N/A,,Overcast,90,2013-09-14 15:53:00
10:53 AM,64.9,57.0,75,29.86,10.0,East,11.5,-,N/A,,Overcast,80,2013-09-14 16:53:00
11:13 AM,64.4,55.4,73,29.99,10.0,East,10.4,-,N/A,Thunderstorm,Overcast,80,2013-09-14 17:13:00
11:28 AM,66.2,57.2,73,29.99,10.0,East,10.4,-,N/A,,Overcast,90,2013-09-14 17:28:00
11:53 AM,66.0,57.0,73,29.86,10.0,ENE,10.4,-,0.00,Rain,Light Rain,70,2013-09-14 17:53:00
12:09 PM,64.4,59.0,83,29.98,5.0,ENE,8.1,-,0.04,Rain-Thunderstorm,Light Rain,70,2013-09-14 18:09:00
12:24 PM,66.2,60.8,83,29.98,10.0,ENE,9.2,-,0.04,,Overcast,60,2013-09-14 18:24:00
12:53 PM,68.0,61.0,78,29.84,10.0,ENE,11.5,-,0.04,,Overcast,60,2013-09-14 18:53:00
1:53 PM,68.0,55.9,65,29.84,10.0,ENE,11.5,-,N/A,,Clear,60,2013-09-14 19:53:00
2:50 PM,68.0,57.2,68,29.94,10.0,East,13.8,-,0.00,Thunderstorm,Clear,80,2013-09-14 20:50:00
2:53 PM,68.0,57.0,68,29.82,10.0,East,13.8,-,0.00,Thunderstorm,Clear,80,2013-09-14 20:53:00
3:08 PM,68.0,57.2,68,29.94,10.0,ENE,12.7,-,N/A,,Clear,70,2013-09-14 21:08:00
3:53 PM,71.1,55.0,57,29.78,10.0,Variable,6.9,-,N/A,,Clear,0,2013-09-14 21:53:00
4:53 PM,70.0,55.9,61,29.80,10.0,East,4.6,-,N/A,,Clear,100,2013-09-14 22:53:00
5:53 PM,70.0,57.0,63,29.81,10.0,ENE,5.8,-,N/A,Thunderstorm,Clear,60,2013-09-14 23:53:00
6:14 PM,69.8,57.2,64,29.94,10.0,East,4.6,-,N/A,,Partly Cloudy,80,2013-09-15 00:14:00
6:53 PM,69.1,57.9,68,29.81,10.0,SE,4.6,-,N/A,,Clear,140,2013-09-15 00:53:00
7:53 PM,66.9,57.9,73,29.83,10.0,ENE,3.5,-,N/A,,Clear,70,2013-09-15 01:53:00
8:53 PM,64.9,57.0,75,29.84,10.0,Calm,Calm,-,N/A,,Clear,0,2013-09-15 02:53:00
9:53 PM,64.0,57.9,80,29.86,10.0,Calm,Calm,-,N/A,,Clear,0,2013-09-15 03:53:00
10:53 PM,62.1,57.0,84,29.87,10.0,Calm,Calm,-,N/A,,Mostly Cloudy,0,2013-09-15 04:53:00
11:53 PM,62.1,57.9,86,29.88,10.0,Calm,Calm,-,N/A,,Mostly Cloudy,0,2013-09-15 05:53:00